owner,sensor,date,latitude,longitude,vertical_datum,wind_speed,wind_to_direction,wind_speed_of_gust,qcFlag 
DISL,ioos:station:DISL:MHPA:1,2013-05-01T00:00:00Z,30.6671,-87.9365,8.5,3.96,122.6,-9999.0,'1111122,1111122,1111122' 
DISL,ioos:station:DISL:MHPA:1,2013-05-01T00:30:00Z,30.6671,-87.9365,8.5,3.39,124.5,-9999.0,'1111122,1111122,1111122' 
DISL,ioos:station:DISL:MHPA:1,2013-05-01T01:00:00Z,30.6671,-87.9365,8.5,3.32,119.3,-9999.0,'1111122,1111122,1111122' 
DISL,ioos:station:DISL:MHPA:1,2013-05-01T01:30:00Z,30.6671,-87.9365,8.5,2.46,107.4,-9999.0,'1111122,1111122,1111122' 
DISL,ioos:station:DISL:MHPA:1,2013-05-01T02:00:00Z,30.6671,-87.9365,8.5,3.1,104.7,-9999.0,'1111122,1111122,1111122' 
DISL,ioos:station:DISL:MHPA:1,2013-05-01T02:30:00Z,30.6671,-87.9365,8.5,3.1,115.5,-9999.0,'1111122,1111122,1111122' 
DISL,ioos:station:DISL:MHPA:1,2013-05-01T03:00:00Z,30.6671,-87.9365,8.5,3.09,121.6,-9999.0,'1111122,1111122,1111122' 
DISL,ioos:station:DISL:MHPA:1,2013-05-01T03:30:00Z,30.6671,-87.9365,8.5,2.8,108.8,-9999.0,'1111122,1111122,1111122' 
DISL,ioos:station:DISL:MHPA:1,2013-05-01T04:00:00Z,30.6671,-87.9365,8.5,2.46,100.6,-9999.0,'1111122,1111122,1111122' 
DISL,ioos:station:DISL:MHPA:1,2013-05-01T04:30:00Z,30.6671,-87.9365,8.5,2.15,88.3,-9999.0,'1111122,1111122,1111122' 
DISL,ioos:station:DISL:MHPA:1,2013-05-01T05:00:00Z,30.6671,-87.9365,8.5,2.63,107.5,-9999.0,'1111122,1111122,1111122' 
DISL,ioos:station:DISL:MHPA:1,2013-05-01T05:30:00Z,30.6671,-87.9365,8.5,2.28,99.7,-9999.0,'1111122,1111122,1111122' 
DISL,ioos:station:DISL:MHPA:1,2013-05-01T06:00:00Z,30.6671,-87.9365,8.5,1.62,86.6,-9999.0,'1111122,1111122,1111122' 
DISL,ioos:station:DISL:MHPA:1,2013-05-01T06:30:00Z,30.6671,-87.9365,8.5,3.08,100.3,-9999.0,'1111122,1111122,1111122' 
DISL,ioos:station:DISL:MHPA:1,2013-05-01T07:00:00Z,30.6671,-87.9365,8.5,2.86,125.6,-9999.0,'1111122,1111122,1111122' 
DISL,ioos:station:DISL:MHPA:1,2013-05-01T07:30:00Z,30.6671,-87.9365,8.5,2.97,111.9,-9999.0,'1111122,1111122,1111122' 
DISL,ioos:station:DISL:MHPA:1,2013-05-01T08:00:00Z,30.6671,-87.9365,8.5,2.56,106.0,-9999.0,'1111122,1111122,1111122' 
DISL,ioos:station:DISL:MHPA:1,2013-05-01T08:30:00Z,30.6671,-87.9365,8.5,2.11,92.5,-9999.0,'1111122,1111122,1111122' 
DISL,ioos:station:DISL:MHPA:1,2013-05-01T09:00:00Z,30.6671,-87.9365,8.5,2.5,87.6,-9999.0,'1111122,1111122,1111122' 
DISL,ioos:station:DISL:MHPA:1,2013-05-01T09:30:00Z,30.6671,-87.9365,8.5,2.33,94.0,-9999.0,'1111122,1111122,1111122' 
DISL,ioos:station:DISL:MHPA:1,2013-05-01T10:00:00Z,30.6671,-87.9365,8.5,2.71,89.5,-9999.0,'1111122,1111122,1111122' 
DISL,ioos:station:DISL:MHPA:1,2013-05-01T10:30:00Z,30.6671,-87.9365,8.5,3.3,107.6,-9999.0,'1111122,1111122,1111122' 
DISL,ioos:station:DISL:MHPA:1,2013-05-01T11:00:00Z,30.6671,-87.9365,8.5,2.67,85.4,-9999.0,'1111122,1111122,1111122' 
DISL,ioos:station:DISL:MHPA:1,2013-05-01T11:30:00Z,30.6671,-87.9365,8.5,2.62,84.7,-9999.0,'1111122,1111122,1111122' 
DISL,ioos:station:DISL:MHPA:1,2013-05-01T12:00:00Z,30.6671,-87.9365,8.5,2.51,85.6,-9999.0,'1111122,1111122,1111122' 
DISL,ioos:station:DISL:MHPA:1,2013-05-01T12:30:00Z,30.6671,-87.9365,8.5,3.42,95.3,-9999.0,'1111122,1111122,1111122' 
DISL,ioos:station:DISL:MHPA:1,2013-05-01T13:00:00Z,30.6671,-87.9365,8.5,3.33,88.7,-9999.0,'1111122,1111122,1111122' 
DISL,ioos:station:DISL:MHPA:1,2013-05-01T13:30:00Z,30.6671,-87.9365,8.5,3.55,81.1,-9999.0,'1111122,1111122,1111122' 
DISL,ioos:station:DISL:MHPA:1,2013-05-01T14:00:00Z,30.6671,-87.9365,8.5,3.18,98.7,-9999.0,'1111122,1111122,1111122' 
DISL,ioos:station:DISL:MHPA:1,2013-05-01T14:30:00Z,30.6671,-87.9365,8.5,2.98,91.0,-9999.0,'1111122,1111122,1111122' 
DISL,ioos:station:DISL:MHPA:1,2013-05-01T15:00:00Z,30.6671,-87.9365,8.5,4.43,115.2,-9999.0,'1111122,1111122,1111122' 
DISL,ioos:station:DISL:MHPA:1,2013-05-01T15:30:00Z,30.6671,-87.9365,8.5,3.68,99.4,-9999.0,'1111122,1111122,1111122' 
DISL,ioos:station:DISL:MHPA:1,2013-05-01T16:00:00Z,30.6671,-87.9365,8.5,4.55,115.9,-9999.0,'1111122,1111122,1111122' 
DISL,ioos:station:DISL:MHPA:1,2013-05-01T16:30:00Z,30.6671,-87.9365,8.5,2.12,167.4,-9999.0,'1111122,1111122,1111122' 
DISL,ioos:station:DISL:MHPA:1,2013-05-01T17:00:00Z,30.6671,-87.9365,8.5,4.75,113.2,-9999.0,'1111122,1111122,1111122' 
DISL,ioos:station:DISL:MHPA:1,2013-05-01T17:30:00Z,30.6671,-87.9365,8.5,4.01,89.2,-9999.0,'1111122,1111122,1111122' 
DISL,ioos:station:DISL:MHPA:1,2013-05-01T18:00:00Z,30.6671,-87.9365,8.5,3.43,85.3,-9999.0,'1111122,1111122,1111122' 
DISL,ioos:station:DISL:MHPA:1,2013-05-01T18:30:00Z,30.6671,-87.9365,8.5,2.79,78.6,-9999.0,'1111122,1111122,1111122' 
DISL,ioos:station:DISL:MHPA:1,2013-05-01T19:00:00Z,30.6671,-87.9365,8.5,3.16,132.2,-9999.0,'1111122,1111122,1111122' 
DISL,ioos:station:DISL:MHPA:1,2013-05-01T19:30:00Z,30.6671,-87.9365,8.5,2.78,71.7,-9999.0,'1111122,1111122,1111122' 
DISL,ioos:station:DISL:MHPA:1,2013-05-01T20:00:00Z,30.6671,-87.9365,8.5,2.42,75.2,-9999.0,'1111122,1111122,1111122' 
DISL,ioos:station:DISL:MHPA:1,2013-05-01T20:30:00Z,30.6671,-87.9365,8.5,2.66,86.5,-9999.0,'1111122,1111122,1111122' 
DISL,ioos:station:DISL:MHPA:1,2013-05-01T21:00:00Z,30.6671,-87.9365,8.5,3.66,93.6,-9999.0,'1111122,1111122,1111122' 
DISL,ioos:station:DISL:MHPA:1,2013-05-01T21:30:00Z,30.6671,-87.9365,8.5,4.13,82.5,-9999.0,'1111122,1111122,1111122' 
DISL,ioos:station:DISL:MHPA:1,2013-05-01T22:00:00Z,30.6671,-87.9365,8.5,3.86,74.9,-9999.0,'1111122,1111122,1111122' 
DISL,ioos:station:DISL:MHPA:1,2013-05-01T22:30:00Z,30.6671,-87.9365,8.5,3.89,61.37,-9999.0,'1111122,1111122,1111122' 
DISL,ioos:station:DISL:MHPA:1,2013-05-01T23:00:00Z,30.6671,-87.9365,8.5,3.88,75.9,-9999.0,'1111122,1111122,1111122' 
DISL,ioos:station:DISL:MHPA:1,2013-05-01T23:30:00Z,30.6671,-87.9365,8.5,3.8,83.0,-9999.0,'1111122,1111122,1111122' 
DISL,ioos:station:DISL:MHPA:1,2013-05-02T00:00:00Z,30.6671,-87.9365,8.5,4.12,73.1,-9999.0,'1111122,1111122,1111122' 
DISL,ioos:station:DISL:MHPA:1,2013-05-02T00:30:00Z,30.6671,-87.9365,8.5,4.82,84.3,-9999.0,'1111122,1111122,1111122' 
DISL,ioos:station:DISL:MHPA:1,2013-05-02T01:00:00Z,30.6671,-87.9365,8.5,4.64,93.9,-9999.0,'1111122,1111122,1111122' 
DISL,ioos:station:DISL:MHPA:1,2013-05-02T01:30:00Z,30.6671,-87.9365,8.5,4.51,96.8,-9999.0,'1111122,1111122,1111122' 
DISL,ioos:station:DISL:MHPA:1,2013-05-02T02:00:00Z,30.6671,-87.9365,8.5,3.67,85.5,-9999.0,'1111122,1111122,1111122' 
DISL,ioos:station:DISL:MHPA:1,2013-05-02T02:30:00Z,30.6671,-87.9365,8.5,4.52,94.1,-9999.0,'1111122,1111122,1111122' 
DISL,ioos:station:DISL:MHPA:1,2013-05-02T03:00:00Z,30.6671,-87.9365,8.5,2.89,105.5,-9999.0,'1111122,1111122,1111122' 
DISL,ioos:station:DISL:MHPA:1,2013-05-02T03:30:00Z,30.6671,-87.9365,8.5,9.63,236.7,-9999.0,'1111122,1111122,1111122' 
DISL,ioos:station:DISL:MHPA:1,2013-05-02T04:00:00Z,30.6671,-87.9365,8.5,5.27,142.7,-9999.0,'1111122,1111122,1111122' 
DISL,ioos:station:DISL:MHPA:1,2013-05-02T04:30:00Z,30.6671,-87.9365,8.5,2.47,153.7,-9999.0,'1111122,1111122,1111122' 
DISL,ioos:station:DISL:MHPA:1,2013-05-02T05:00:00Z,30.6671,-87.9365,8.5,4.61,184.7,-9999.0,'1111122,1111122,1111122' 
DISL,ioos:station:DISL:MHPA:1,2013-05-02T05:30:00Z,30.6671,-87.9365,8.5,5.43,203.0,-9999.0,'1111122,1111122,1111122' 
DISL,ioos:station:DISL:MHPA:1,2013-05-02T06:00:00Z,30.6671,-87.9365,8.5,2.54,118.9,-9999.0,'1111122,1111122,1111122' 
DISL,ioos:station:DISL:MHPA:1,2013-05-02T06:30:00Z,30.6671,-87.9365,8.5,3.22,133.9,-9999.0,'1111122,1111122,1111122' 
DISL,ioos:station:DISL:MHPA:1,2013-05-02T07:00:00Z,30.6671,-87.9365,8.5,5.13,169.6,-9999.0,'1111122,1111122,1111122' 
DISL,ioos:station:DISL:MHPA:1,2013-05-02T07:30:00Z,30.6671,-87.9365,8.5,3.01,71.1,-9999.0,'1111122,1111122,1111122' 
DISL,ioos:station:DISL:MHPA:1,2013-05-02T08:00:00Z,30.6671,-87.9365,8.5,2.04,26.31,-9999.0,'1111122,1111122,1111122' 
DISL,ioos:station:DISL:MHPA:1,2013-05-02T08:30:00Z,30.6671,-87.9365,8.5,3.21,81.2,-9999.0,'1111122,1111122,1111122' 
DISL,ioos:station:DISL:MHPA:1,2013-05-02T09:00:00Z,30.6671,-87.9365,8.5,2.29,80.3,-9999.0,'1111122,1111122,1111122' 
DISL,ioos:station:DISL:MHPA:1,2013-05-02T09:30:00Z,30.6671,-87.9365,8.5,3.89,106.0,-9999.0,'1111122,1111122,1111122' 
DISL,ioos:station:DISL:MHPA:1,2013-05-02T10:00:00Z,30.6671,-87.9365,8.5,4.26,89.4,-9999.0,'1111122,1111122,1111122' 
DISL,ioos:station:DISL:MHPA:1,2013-05-02T10:30:00Z,30.6671,-87.9365,8.5,2.48,84.1,-9999.0,'1111122,1111122,1111122' 
DISL,ioos:station:DISL:MHPA:1,2013-05-02T11:00:00Z,30.6671,-87.9365,8.5,2.5,65.95,-9999.0,'1111122,1111122,1111122' 
DISL,ioos:station:DISL:MHPA:1,2013-05-02T11:30:00Z,30.6671,-87.9365,8.5,3.42,78.9,-9999.0,'1111122,1111122,1111122' 
DISL,ioos:station:DISL:MHPA:1,2013-05-02T12:00:00Z,30.6671,-87.9365,8.5,2.91,72.2,-9999.0,'1111122,1111122,1111122' 
DISL,ioos:station:DISL:MHPA:1,2013-05-02T12:30:00Z,30.6671,-87.9365,8.5,3.51,74.7,-9999.0,'1111122,1111122,1111122' 
DISL,ioos:station:DISL:MHPA:1,2013-05-02T13:00:00Z,30.6671,-87.9365,8.5,2.3,74.4,-9999.0,'1111122,1111122,1111122' 
DISL,ioos:station:DISL:MHPA:1,2013-05-02T13:30:00Z,30.6671,-87.9365,8.5,2.15,88.4,-9999.0,'1111122,1111122,1111122' 
DISL,ioos:station:DISL:MHPA:1,2013-05-02T14:00:00Z,30.6671,-87.9365,8.5,2.58,83.0,-9999.0,'1111122,1111122,1111122' 
DISL,ioos:station:DISL:MHPA:1,2013-05-02T14:30:00Z,30.6671,-87.9365,8.5,2.37,68.63,-9999.0,'1111122,1111122,1111122' 
DISL,ioos:station:DISL:MHPA:1,2013-05-02T15:00:00Z,30.6671,-87.9365,8.5,3.17,73.1,-9999.0,'1111122,1111122,1111122' 
DISL,ioos:station:DISL:MHPA:1,2013-05-02T15:30:00Z,30.6671,-87.9365,8.5,3.09,75.0,-9999.0,'1111122,1111122,1111122' 
DISL,ioos:station:DISL:MHPA:1,2013-05-02T16:00:00Z,30.6671,-87.9365,8.5,2.56,74.4,-9999.0,'1111122,1111122,1111122' 
DISL,ioos:station:DISL:MHPA:1,2013-05-02T16:30:00Z,30.6671,-87.9365,8.5,3.52,80.1,-9999.0,'1111122,1111122,1111122' 
DISL,ioos:station:DISL:MHPA:1,2013-05-02T17:00:00Z,30.6671,-87.9365,8.5,2.83,67.88,-9999.0,'1111122,1111122,1111122' 
DISL,ioos:station:DISL:MHPA:1,2013-05-02T17:30:00Z,30.6671,-87.9365,8.5,3.26,95.0,-9999.0,'1111122,1111122,1111122' 
DISL,ioos:station:DISL:MHPA:1,2013-05-02T18:00:00Z,30.6671,-87.9365,8.5,3.04,82.3,-9999.0,'1111122,1111122,1111122' 
DISL,ioos:station:DISL:MHPA:1,2013-05-02T18:30:00Z,30.6671,-87.9365,8.5,2.97,90.6,-9999.0,'1111122,1111122,1111122' 
DISL,ioos:station:DISL:MHPA:1,2013-05-02T19:00:00Z,30.6671,-87.9365,8.5,2.6,46.38,-9999.0,'1111122,1111122,1111122' 
DISL,ioos:station:DISL:MHPA:1,2013-05-02T19:30:00Z,30.6671,-87.9365,8.5,2.87,42.62,-9999.0,'1111122,1111122,1111122' 
DISL,ioos:station:DISL:MHPA:1,2013-05-02T20:00:00Z,30.6671,-87.9365,8.5,2.64,57.94,-9999.0,'1111122,1111122,1111122' 
DISL,ioos:station:DISL:MHPA:1,2013-05-02T20:30:00Z,30.6671,-87.9365,8.5,2.62,75.4,-9999.0,'1111122,1111122,1111122' 
DISL,ioos:station:DISL:MHPA:1,2013-05-02T21:00:00Z,30.6671,-87.9365,8.5,2.91,79.4,-9999.0,'1111122,1111122,1111122' 
DISL,ioos:station:DISL:MHPA:1,2013-05-02T21:30:00Z,30.6671,-87.9365,8.5,1.77,62.23,-9999.0,'1111122,1111122,1111122' 
DISL,ioos:station:DISL:MHPA:1,2013-05-02T22:00:00Z,30.6671,-87.9365,8.5,1.41,64.41,-9999.0,'1111122,1111122,1111122' 
DISL,ioos:station:DISL:MHPA:1,2013-05-02T22:30:00Z,30.6671,-87.9365,8.5,1.7,73.5,-9999.0,'1111122,1111122,1111122' 
DISL,ioos:station:DISL:MHPA:1,2013-05-02T23:00:00Z,30.6671,-87.9365,8.5,1.35,53.01,-9999.0,'1111122,1111122,1111122' 
DISL,ioos:station:DISL:MHPA:1,2013-05-02T23:30:00Z,30.6671,-87.9365,8.5,1.39,51.61,-9999.0,'1111122,1111122,1111122' 
DISL,ioos:station:DISL:MHPA:1,2013-05-03T00:00:00Z,30.6671,-87.9365,8.5,1.38,17.71,-9999.0,'1111122,1111122,1111122' 
DISL,ioos:station:DISL:MHPA:1,2013-05-03T00:30:00Z,30.6671,-87.9365,8.5,1.1,41.61,-9999.0,'1111122,1111122,1111122' 
DISL,ioos:station:DISL:MHPA:1,2013-05-03T01:00:00Z,30.6671,-87.9365,8.5,0.04,31.92,-9999.0,'1111122,1111122,1111122' 
DISL,ioos:station:DISL:MHPA:1,2013-05-03T01:30:00Z,30.6671,-87.9365,8.5,2.28,71.3,-9999.0,'1111122,1111122,1111122' 
DISL,ioos:station:DISL:MHPA:1,2013-05-03T02:00:00Z,30.6671,-87.9365,8.5,1.22,138.4,-9999.0,'1111122,1111122,1111122' 
DISL,ioos:station:DISL:MHPA:1,2013-05-03T02:30:00Z,30.6671,-87.9365,8.5,3.83,98.4,-9999.0,'1111122,1111122,1111122' 
DISL,ioos:station:DISL:MHPA:1,2013-05-03T03:00:00Z,30.6671,-87.9365,8.5,1.64,72.4,-9999.0,'1111122,1111122,1111122' 
DISL,ioos:station:DISL:MHPA:1,2013-05-03T03:30:00Z,30.6671,-87.9365,8.5,1.27,38.77,-9999.0,'1111122,1111122,1111122' 
DISL,ioos:station:DISL:MHPA:1,2013-05-03T04:00:00Z,30.6671,-87.9365,8.5,1.53,58.57,-9999.0,'1111122,1111122,1111122' 
DISL,ioos:station:DISL:MHPA:1,2013-05-03T04:30:00Z,30.6671,-87.9365,8.5,1.45,33.65,-9999.0,'1111122,1111122,1111122' 
DISL,ioos:station:DISL:MHPA:1,2013-05-03T05:00:00Z,30.6671,-87.9365,8.5,2.19,47.64,-9999.0,'1111122,1111122,1111122' 
DISL,ioos:station:DISL:MHPA:1,2013-05-03T05:30:00Z,30.6671,-87.9365,8.5,2.44,63.89,-9999.0,'1111122,1111122,1111122' 
DISL,ioos:station:DISL:MHPA:1,2013-05-03T06:00:00Z,30.6671,-87.9365,8.5,3.0,78.0,-9999.0,'1111122,1111122,1111122' 
DISL,ioos:station:DISL:MHPA:1,2013-05-03T06:30:00Z,30.6671,-87.9365,8.5,2.1,54.69,-9999.0,'1111122,1111122,1111122' 
DISL,ioos:station:DISL:MHPA:1,2013-05-03T07:00:00Z,30.6671,-87.9365,8.5,1.99,46.08,-9999.0,'1111122,1111122,1111122' 
DISL,ioos:station:DISL:MHPA:1,2013-05-03T07:30:00Z,30.6671,-87.9365,8.5,1.58,55.26,-9999.0,'1111122,1111122,1111122' 
DISL,ioos:station:DISL:MHPA:1,2013-05-03T08:00:00Z,30.6671,-87.9365,8.5,0.76,47.15,-9999.0,'1111122,1111122,1111122' 
DISL,ioos:station:DISL:MHPA:1,2013-05-03T08:30:00Z,30.6671,-87.9365,8.5,1.18,30.81,-9999.0,'1111122,1111122,1111122' 
DISL,ioos:station:DISL:MHPA:1,2013-05-03T09:00:00Z,30.6671,-87.9365,8.5,0.85,1.571,-9999.0,'1111122,1111122,1111122' 
DISL,ioos:station:DISL:MHPA:1,2013-05-03T09:30:00Z,30.6671,-87.9365,8.5,1.54,336.2,-9999.0,'1111122,1111122,1111122' 
DISL,ioos:station:DISL:MHPA:1,2013-05-03T10:00:00Z,30.6671,-87.9365,8.5,1.3,7.87,-9999.0,'1111122,1111122,1111122' 
DISL,ioos:station:DISL:MHPA:1,2013-05-03T10:30:00Z,30.6671,-87.9365,8.5,1.05,2.677,-9999.0,'1111122,1111122,1111122' 
DISL,ioos:station:DISL:MHPA:1,2013-05-03T11:00:00Z,30.6671,-87.9365,8.5,1.1,31.68,-9999.0,'1111122,1111122,1111122' 
DISL,ioos:station:DISL:MHPA:1,2013-05-03T11:30:00Z,30.6671,-87.9365,8.5,1.55,38.9,-9999.0,'1111122,1111122,1111122' 
DISL,ioos:station:DISL:MHPA:1,2013-05-03T12:00:00Z,30.6671,-87.9365,8.5,1.45,28.61,-9999.0,'1111122,1111122,1111122' 
DISL,ioos:station:DISL:MHPA:1,2013-05-03T12:30:00Z,30.6671,-87.9365,8.5,1.35,334.9,-9999.0,'1111122,1111122,1111122' 
DISL,ioos:station:DISL:MHPA:1,2013-05-03T13:00:00Z,30.6671,-87.9365,8.5,1.3,28.22,-9999.0,'1111122,1111122,1111122' 
DISL,ioos:station:DISL:MHPA:1,2013-05-03T13:30:00Z,30.6671,-87.9365,8.5,1.36,36.69,-9999.0,'1111122,1111122,1111122' 
DISL,ioos:station:DISL:MHPA:1,2013-05-03T14:00:00Z,30.6671,-87.9365,8.5,2.49,62.76,-9999.0,'1111122,1111122,1111122' 
DISL,ioos:station:DISL:MHPA:1,2013-05-03T14:30:00Z,30.6671,-87.9365,8.5,3.34,94.4,-9999.0,'1111122,1111122,1111122' 
DISL,ioos:station:DISL:MHPA:1,2013-05-03T15:00:00Z,30.6671,-87.9365,8.5,3.15,85.4,-9999.0,'1111122,1111122,1111122' 
DISL,ioos:station:DISL:MHPA:1,2013-05-03T15:30:00Z,30.6671,-87.9365,8.5,3.83,100.2,-9999.0,'1111122,1111122,1111122' 
DISL,ioos:station:DISL:MHPA:1,2013-05-03T16:00:00Z,30.6671,-87.9365,8.5,2.36,97.2,-9999.0,'1111122,1111122,1111122' 
DISL,ioos:station:DISL:MHPA:1,2013-05-03T16:30:00Z,30.6671,-87.9365,8.5,2.07,96.8,-9999.0,'1111122,1111122,1111122' 
DISL,ioos:station:DISL:MHPA:1,2013-05-03T17:00:00Z,30.6671,-87.9365,8.5,2.85,95.3,-9999.0,'1111122,1111122,1111122' 
DISL,ioos:station:DISL:MHPA:1,2013-05-03T17:30:00Z,30.6671,-87.9365,8.5,2.63,111.4,-9999.0,'1111122,1111122,1111122' 
DISL,ioos:station:DISL:MHPA:1,2013-05-03T18:00:00Z,30.6671,-87.9365,8.5,3.07,84.2,-9999.0,'1111122,1111122,1111122' 
DISL,ioos:station:DISL:MHPA:1,2013-05-03T18:30:00Z,30.6671,-87.9365,8.5,2.54,97.0,-9999.0,'1111122,1111122,1111122' 
DISL,ioos:station:DISL:MHPA:1,2013-05-03T19:00:00Z,30.6671,-87.9365,8.5,2.29,67.9,-9999.0,'1111122,1111122,1111122' 
DISL,ioos:station:DISL:MHPA:1,2013-05-03T19:30:00Z,30.6671,-87.9365,8.5,1.89,105.1,-9999.0,'1111122,1111122,1111122' 
DISL,ioos:station:DISL:MHPA:1,2013-05-03T20:00:00Z,30.6671,-87.9365,8.5,2.28,109.2,-9999.0,'1111122,1111122,1111122' 
DISL,ioos:station:DISL:MHPA:1,2013-05-03T20:30:00Z,30.6671,-87.9365,8.5,1.62,51.17,-9999.0,'1111122,1111122,1111122' 
DISL,ioos:station:DISL:MHPA:1,2013-05-03T21:00:00Z,30.6671,-87.9365,8.5,3.13,81.3,-9999.0,'1111122,1111122,1111122' 
DISL,ioos:station:DISL:MHPA:1,2013-05-03T21:30:00Z,30.6671,-87.9365,8.5,2.86,99.4,-9999.0,'1111122,1111122,1111122' 
DISL,ioos:station:DISL:MHPA:1,2013-05-03T22:00:00Z,30.6671,-87.9365,8.5,3.37,101.0,-9999.0,'1111122,1111122,1111122' 
DISL,ioos:station:DISL:MHPA:1,2013-05-03T22:30:00Z,30.6671,-87.9365,8.5,2.91,100.8,-9999.0,'1111122,1111122,1111122' 
DISL,ioos:station:DISL:MHPA:1,2013-05-03T23:00:00Z,30.6671,-87.9365,8.5,2.95,127.4,-9999.0,'1111122,1111122,1111122' 
DISL,ioos:station:DISL:MHPA:1,2013-05-03T23:30:00Z,30.6671,-87.9365,8.5,1.26,22.35,-9999.0,'1111122,1111122,1111122' 
DISL,ioos:station:DISL:MHPA:1,2013-05-04T00:00:00Z,30.6671,-87.9365,8.5,7.6,323.3,-9999.0,'1111122,1111122,1111122' 
DISL,ioos:station:DISL:MHPA:1,2013-05-04T00:30:00Z,30.6671,-87.9365,8.5,7.12,324.1,-9999.0,'1111122,1111122,1111122' 
DISL,ioos:station:DISL:MHPA:1,2013-05-04T01:00:00Z,30.6671,-87.9365,8.5,6.4,328.8,-9999.0,'1111122,1111122,1111122' 
DISL,ioos:station:DISL:MHPA:1,2013-05-04T01:30:00Z,30.6671,-87.9365,8.5,7.55,331.3,-9999.0,'1111122,1111122,1111122' 
DISL,ioos:station:DISL:MHPA:1,2013-05-04T02:00:00Z,30.6671,-87.9365,8.5,6.2,336.4,-9999.0,'1111122,1111122,1111122' 
DISL,ioos:station:DISL:MHPA:1,2013-05-04T02:30:00Z,30.6671,-87.9365,8.5,6.93,336.6,-9999.0,'1111122,1111122,1111122' 
DISL,ioos:station:DISL:MHPA:1,2013-05-04T03:00:00Z,30.6671,-87.9365,8.5,7.04,332.4,-9999.0,'1111122,1111122,1111122' 
DISL,ioos:station:DISL:MHPA:1,2013-05-04T03:30:00Z,30.6671,-87.9365,8.5,8.65,333.4,-9999.0,'1111122,1111122,1111122' 
DISL,ioos:station:DISL:MHPA:1,2013-05-04T04:00:00Z,30.6671,-87.9365,8.5,6.49,338.5,-9999.0,'1111122,1111122,1111122' 
DISL,ioos:station:DISL:MHPA:1,2013-05-04T04:30:00Z,30.6671,-87.9365,8.5,8.34,335.0,-9999.0,'1111122,1111122,1111122' 
DISL,ioos:station:DISL:MHPA:1,2013-05-04T05:00:00Z,30.6671,-87.9365,8.5,7.16,343.6,-9999.0,'1111122,1111122,1111122' 
DISL,ioos:station:DISL:MHPA:1,2013-05-04T05:30:00Z,30.6671,-87.9365,8.5,6.83,347.4,-9999.0,'1111122,1111122,1111122' 
DISL,ioos:station:DISL:MHPA:1,2013-05-04T06:00:00Z,30.6671,-87.9365,8.5,6.89,339.0,-9999.0,'1111122,1111122,1111122' 
DISL,ioos:station:DISL:MHPA:1,2013-05-04T06:30:00Z,30.6671,-87.9365,8.5,6.55,353.9,-9999.0,'1111122,1111122,1111122' 
DISL,ioos:station:DISL:MHPA:1,2013-05-04T07:00:00Z,30.6671,-87.9365,8.5,7.02,350.2,-9999.0,'1111122,1111122,1111122' 
DISL,ioos:station:DISL:MHPA:1,2013-05-04T07:30:00Z,30.6671,-87.9365,8.5,6.32,348.3,-9999.0,'1111122,1111122,1111122' 
DISL,ioos:station:DISL:MHPA:1,2013-05-04T08:00:00Z,30.6671,-87.9365,8.5,6.0,356.1,-9999.0,'1111122,1111122,1111122' 
DISL,ioos:station:DISL:MHPA:1,2013-05-04T08:30:00Z,30.6671,-87.9365,8.5,6.57,353.7,-9999.0,'1111122,1111122,1111122' 
DISL,ioos:station:DISL:MHPA:1,2013-05-04T09:00:00Z,30.6671,-87.9365,8.5,5.67,340.4,-9999.0,'1111122,1111122,1111122' 
DISL,ioos:station:DISL:MHPA:1,2013-05-04T09:30:00Z,30.6671,-87.9365,8.5,5.53,341.1,-9999.0,'1111122,1111122,1111122' 
DISL,ioos:station:DISL:MHPA:1,2013-05-04T10:00:00Z,30.6671,-87.9365,8.5,4.66,344.4,-9999.0,'1111122,1111122,1111122' 
DISL,ioos:station:DISL:MHPA:1,2013-05-04T10:30:00Z,30.6671,-87.9365,8.5,4.17,330.3,-9999.0,'1111122,1111122,1111122' 
DISL,ioos:station:DISL:MHPA:1,2013-05-04T11:00:00Z,30.6671,-87.9365,8.5,4.34,340.6,-9999.0,'1111122,1111122,1111122' 
DISL,ioos:station:DISL:MHPA:1,2013-05-04T11:30:00Z,30.6671,-87.9365,8.5,4.7,341.0,-9999.0,'1111122,1111122,1111122' 
DISL,ioos:station:DISL:MHPA:1,2013-05-04T12:00:00Z,30.6671,-87.9365,8.5,4.3,345.3,-9999.0,'1111122,1111122,1111122' 
DISL,ioos:station:DISL:MHPA:1,2013-05-04T12:30:00Z,30.6671,-87.9365,8.5,4.35,347.5,-9999.0,'1111122,1111122,1111122' 
DISL,ioos:station:DISL:MHPA:1,2013-05-04T13:00:00Z,30.6671,-87.9365,8.5,4.7,333.5,-9999.0,'1111122,1111122,1111122' 
DISL,ioos:station:DISL:MHPA:1,2013-05-04T13:30:00Z,30.6671,-87.9365,8.5,5.63,354.2,-9999.0,'1111122,1111122,1111122' 
DISL,ioos:station:DISL:MHPA:1,2013-05-04T14:00:00Z,30.6671,-87.9365,8.5,4.77,336.8,-9999.0,'1111122,1111122,1111122' 
DISL,ioos:station:DISL:MHPA:1,2013-05-04T14:30:00Z,30.6671,-87.9365,8.5,5.69,343.4,-9999.0,'1111122,1111122,1111122' 
DISL,ioos:station:DISL:MHPA:1,2013-05-04T15:00:00Z,30.6671,-87.9365,8.5,4.63,337.3,-9999.0,'1111122,1111122,1111122' 
DISL,ioos:station:DISL:MHPA:1,2013-05-04T15:30:00Z,30.6671,-87.9365,8.5,5.57,337.9,-9999.0,'1111122,1111122,1111122' 
DISL,ioos:station:DISL:MHPA:1,2013-05-04T16:00:00Z,30.6671,-87.9365,8.5,6.52,327.0,-9999.0,'1111122,1111122,1111122' 
DISL,ioos:station:DISL:MHPA:1,2013-05-04T16:30:00Z,30.6671,-87.9365,8.5,6.64,331.7,-9999.0,'1111122,1111122,1111122' 
DISL,ioos:station:DISL:MHPA:1,2013-05-04T17:00:00Z,30.6671,-87.9365,8.5,5.24,341.1,-9999.0,'1111122,1111122,1111122' 
DISL,ioos:station:DISL:MHPA:1,2013-05-04T17:30:00Z,30.6671,-87.9365,8.5,6.6,336.7,-9999.0,'1111122,1111122,1111122' 
DISL,ioos:station:DISL:MHPA:1,2013-05-04T18:00:00Z,30.6671,-87.9365,8.5,6.22,327.9,-9999.0,'1111122,1111122,1111122' 
DISL,ioos:station:DISL:MHPA:1,2013-05-04T18:30:00Z,30.6671,-87.9365,8.5,6.08,344.5,-9999.0,'1111122,1111122,1111122' 
DISL,ioos:station:DISL:MHPA:1,2013-05-04T19:00:00Z,30.6671,-87.9365,8.5,5.6,328.9,-9999.0,'1111122,1111122,1111122' 
DISL,ioos:station:DISL:MHPA:1,2013-05-04T19:30:00Z,30.6671,-87.9365,8.5,6.11,330.8,-9999.0,'1111122,1111122,1111122' 
DISL,ioos:station:DISL:MHPA:1,2013-05-04T20:00:00Z,30.6671,-87.9365,8.5,6.0,323.2,-9999.0,'1111122,1111122,1111122' 
DISL,ioos:station:DISL:MHPA:1,2013-05-04T20:30:00Z,30.6671,-87.9365,8.5,6.4,329.1,-9999.0,'1111122,1111122,1111122' 
DISL,ioos:station:DISL:MHPA:1,2013-05-04T21:00:00Z,30.6671,-87.9365,8.5,5.71,331.8,-9999.0,'1111122,1111122,1111122' 
DISL,ioos:station:DISL:MHPA:1,2013-05-04T21:30:00Z,30.6671,-87.9365,8.5,6.85,322.8,-9999.0,'1111122,1111122,1111122' 
DISL,ioos:station:DISL:MHPA:1,2013-05-04T22:00:00Z,30.6671,-87.9365,8.5,5.42,327.5,-9999.0,'1111122,1111122,1111122' 
DISL,ioos:station:DISL:MHPA:1,2013-05-04T22:30:00Z,30.6671,-87.9365,8.5,4.76,332.0,-9999.0,'1111122,1111122,1111122' 
DISL,ioos:station:DISL:MHPA:1,2013-05-04T23:00:00Z,30.6671,-87.9365,8.5,3.75,331.4,-9999.0,'1111122,1111122,1111122' 
DISL,ioos:station:DISL:MHPA:1,2013-05-04T23:30:00Z,30.6671,-87.9365,8.5,2.99,333.8,-9999.0,'1111122,1111122,1111122' 
DISL,ioos:station:DISL:MHPA:1,2013-05-05T00:00:00Z,30.6671,-87.9365,8.5,2.28,344.8,-9999.0,'1111122,1111122,1111122' 
DISL,ioos:station:DISL:MHPA:1,2013-05-05T00:30:00Z,30.6671,-87.9365,8.5,1.93,345.6,-9999.0,'1111122,1111122,1111122' 
DISL,ioos:station:DISL:MHPA:1,2013-05-05T01:00:00Z,30.6671,-87.9365,8.5,1.97,339.8,-9999.0,'1111122,1111122,1111122' 
DISL,ioos:station:DISL:MHPA:1,2013-05-05T01:30:00Z,30.6671,-87.9365,8.5,1.05,333.4,-9999.0,'1111122,1111122,1111122' 
DISL,ioos:station:DISL:MHPA:1,2013-05-05T02:00:00Z,30.6671,-87.9365,8.5,0.83,9.93,-9999.0,'1111122,1111122,1111122' 
DISL,ioos:station:DISL:MHPA:1,2013-05-05T02:30:00Z,30.6671,-87.9365,8.5,0.98,51.33,-9999.0,'1111122,1111122,1111122' 
DISL,ioos:station:DISL:MHPA:1,2013-05-05T03:00:00Z,30.6671,-87.9365,8.5,0.65,112.9,-9999.0,'1111122,1111122,1111122' 
DISL,ioos:station:DISL:MHPA:1,2013-05-05T03:30:00Z,30.6671,-87.9365,8.5,0.76,120.3,-9999.0,'1111122,1111122,1111122' 
DISL,ioos:station:DISL:MHPA:1,2013-05-05T04:00:00Z,30.6671,-87.9365,8.5,0.64,87.3,-9999.0,'1111122,1111122,1111122' 
DISL,ioos:station:DISL:MHPA:1,2013-05-05T04:30:00Z,30.6671,-87.9365,8.5,0.92,116.8,-9999.0,'1111122,1111122,1111122' 
DISL,ioos:station:DISL:MHPA:1,2013-05-05T05:00:00Z,30.6671,-87.9365,8.5,1.22,123.4,-9999.0,'1111122,1111122,1111122' 